• In Uzbekistan
  • List of Countries
  • For 7 days
  • Water Temperature
  • Satellite Maps
  • Weather Map
  • Weather Widgets
  • user-avatar
    Login

    Hourly Weather Sumgayit

    Today, 23 July, Sunday

    Time Temperature Precipitation Wind Pressure Humidity
    00:00 +30°C° 0 mm 1 mps 736 mmHg 39%
    01:00 +30°C° 0 mm 1 mps 736 mmHg 39%
    02:00 +29°C° 0 mm 1 mps 735 mmHg 39%
    03:00 +29°C° 0 mm 1 mps 735 mmHg 40%
    04:00 +29°C° 0 mm 1 mps 735 mmHg 39%
    05:00 +30°C° 0 mm 1 mps 735 mmHg 38%
    06:00 +30°C° 0 mm 1 mps 735 mmHg 37%
    07:00 +31°C° 0 mm 1 mps 735 mmHg 34%
    08:00 +34°C° 0 mm 2 mps 735 mmHg 32%
    09:00 +35°C° 0 mm 2 mps 735 mmHg 29%
    10:00 +36°C° 0 mm 3 mps 735 mmHg 27%
    11:00 +37°C° 0 mm 3 mps 735 mmHg 25%
    12:00 +38°C° 0 mm 4 mps 735 mmHg 23%
    13:00 +38°C° 0 mm 4 mps 734 mmHg 23%
    14:00 +40°C° 0 mm 5 mps 734 mmHg 22%
    15:00 +39°C° 0 mm 5 mps 734 mmHg 22%
    16:00 +38°C° 0 mm 6 mps 734 mmHg 29%
    17:00 +35°C° 0 mm 7 mps 735 mmHg 36%
    18:00 +33°C° 0 mm 9 mps 735 mmHg 44%
    19:00 +33°C° 0 mm 10 mps 735 mmHg 46%
    20:00 +32°C° 0 mm 10 mps 735 mmHg 49%
    21:00 +31°C° 0 mm 11 mps 735 mmHg 52%
    22:00 +31°C° 0 mm 11 mps 735 mmHg 55%
    23:00 +29°C° 0 mm 11 mps 735 mmHg 58%

    Tomorrow, 24 July, Monday

    Time Temperature Precipitation Wind Pressure Humidity
    00:00 +28°C° 0 mm 10 mps 735 mmHg 61%
    01:00 +28°C° 0 mm 10 mps 736 mmHg 63%
    02:00 +27°C° 0 mm 10 mps 736 mmHg 65%
    03:00 +27°C° 0 mm 9 mps 736 mmHg 67%
    04:00 +27°C° 0 mm 9 mps 736 mmHg 67%
    05:00 +27°C° 0 mm 9 mps 736 mmHg 67%
    06:00 +27°C° 0 mm 9 mps 736 mmHg 67%
    07:00 +28°C° 0 mm 9 mps 736 mmHg 62%
    08:00 +29°C° 0 mm 9 mps 736 mmHg 56%
    09:00 +31°C° 0 mm 9 mps 736 mmHg 50%
    10:00 +32°C° 0 mm 9 mps 736 mmHg 49%
    11:00 +32°C° 0 mm 9 mps 736 mmHg 47%
    12:00 +33°C° 0 mm 10 mps 736 mmHg 45%
    13:00 +33°C° 0 mm 10 mps 736 mmHg 45%
    14:00 +33°C° 0 mm 10 mps 735 mmHg 45%
    15:00 +33°C° 0 mm 10 mps 735 mmHg 45%
    16:00 +32°C° 0 mm 10 mps 735 mmHg 46%
    17:00 +32°C° 0 mm 10 mps 735 mmHg 47%
    18:00 +31°C° 0 mm 10 mps 735 mmHg 48%
    19:00 +29°C° 0 mm 9 mps 735 mmHg 50%
    20:00 +29°C° 0 mm 9 mps 735 mmHg 51%
    21:00 +28°C° 0 mm 9 mps 735 mmHg 52%
    22:00 +28°C° 0 mm 8 mps 735 mmHg 52%
    23:00 +28°C° 0 mm 8 mps 735 mmHg 53%

    Day after tomorrow, 25 July, Tuesday

    Time Temperature Precipitation Wind Pressure Humidity
    00:00 +28°C° 0 mm 7 mps 735 mmHg 53%
    01:00 +27°C° 0 mm 7 mps 735 mmHg 54%
    02:00 +27°C° 0 mm 6 mps 734 mmHg 54%
    03:00 +27°C° 0 mm 6 mps 734 mmHg 55%
    04:00 +27°C° 0 mm 6 mps 734 mmHg 55%
    05:00 +27°C° 0 mm 6 mps 734 mmHg 55%
    06:00 +27°C° 0 mm 6 mps 734 mmHg 55%
    07:00 +28°C° 0 mm 6 mps 734 mmHg 50%
    08:00 +30°C° 0 mm 5 mps 734 mmHg 46%
    09:00 +32°C° 0 mm 5 mps 734 mmHg 41%
    10:00 +33°C° 0 mm 5 mps 734 mmHg 39%
    11:00 +34°C° 0 mm 5 mps 733 mmHg 36%
    12:00 +35°C° 0 mm 5 mps 733 mmHg 33%
    13:00 +35°C° 0 mm 5 mps 733 mmHg 34%
    14:00 +35°C° 0 mm 6 mps 732 mmHg 34%
    15:00 +35°C° 0 mm 6 mps 732 mmHg 35%
    16:00 +34°C° 0 mm 7 mps 732 mmHg 37%
    17:00 +34°C° 0 mm 7 mps 732 mmHg 40%
    18:00 +33°C° 0 mm 7 mps 732 mmHg 43%
    19:00 +32°C° 0 mm 7 mps 732 mmHg 44%
    20:00 +32°C° 0 mm 7 mps 732 mmHg 46%
    21:00 +30°C° 0 mm 6 mps 733 mmHg 48%
    22:00 +30°C° 0 mm 6 mps 733 mmHg 48%
    23:00 +29°C° 0 mm 6 mps 733 mmHg 48%

    26 July, Wednesday

    Time Temperature Precipitation Wind Pressure Humidity
    00:00 +29°C° 0 mm 5 mps 732 mmHg 48%
    01:00 +29°C° 0 mm 5 mps 732 mmHg 49%
    02:00 +28°C° 0 mm 5 mps 732 mmHg 49%
    03:00 +28°C° 0 mm 4 mps 732 mmHg 50%
    04:00 +28°C° 0 mm 4 mps 732 mmHg 49%
    05:00 +28°C° 0 mm 4 mps 732 mmHg 48%
    06:00 +28°C° 0 mm 4 mps 732 mmHg 48%
    07:00 +30°C° 0 mm 4 mps 733 mmHg 44%
    08:00 +32°C° 0 mm 4 mps 733 mmHg 40%
    09:00 +33°C° 0 mm 4 mps 733 mmHg 37%
    10:00 +34°C° 0 mm 4 mps 733 mmHg 35%
    11:00 +35°C° 0 mm 4 mps 733 mmHg 34%
    12:00 +36°C° 0 mm 5 mps 733 mmHg 32%
    13:00 +36°C° 0 mm 5 mps 733 mmHg 32%
    14:00 +36°C° 0 mm 6 mps 733 mmHg 32%
    15:00 +38°C° 0 mm 7 mps 732 mmHg 32%
    16:00 +36°C° 0 mm 7 mps 733 mmHg 33%
    17:00 +35°C° 0 mm 8 mps 733 mmHg 35%
    18:00 +35°C° 0 mm 8 mps 733 mmHg 36%
    19:00 +34°C° 0 mm 8 mps 733 mmHg 37%
    20:00 +33°C° 0 mm 7 mps 734 mmHg 38%
    21:00 +32°C° 0 mm 7 mps 734 mmHg 38%
    22:00 +32°C° 0 mm 6 mps 734 mmHg 39%
    23:00 +32°C° 0 mm 6 mps 734 mmHg 39%

    27 July, Thursday

    Time Temperature Precipitation Wind Pressure Humidity
    00:00 +30°C° 0 mm 5 mps 734 mmHg 39%
    01:00 +30°C° 0 mm 5 mps 734 mmHg 40%
    02:00 +30°C° 0 mm 5 mps 734 mmHg 40%
    03:00 +29°C° 0 mm 5 mps 734 mmHg 41%
    04:00 +30°C° 0 mm 5 mps 734 mmHg 40%
    05:00 +30°C° 0 mm 5 mps 734 mmHg 40%
    06:00 +30°C° 0 mm 4 mps 734 mmHg 40%
    07:00 +32°C° 0 mm 4 mps 735 mmHg 37%
    08:00 +34°C° 0 mm 5 mps 735 mmHg 34%
    09:00 +35°C° 0 mm 5 mps 735 mmHg 31%
    10:00 +36°C° 0 mm 4 mps 735 mmHg 30%
    11:00 +37°C° 0 mm 4 mps 735 mmHg 30%
    12:00 +38°C° 0 mm 4 mps 735 mmHg 29%
    13:00 +39°C° 0 mm 5 mps 735 mmHg 29%
    14:00 +39°C° 0 mm 5 mps 735 mmHg 30%
    15:00 +38°C° 0 mm 6 mps 734 mmHg 31%
    16:00 +38°C° 0 mm 6 mps 735 mmHg 32%
    17:00 +36°C° 0 mm 6 mps 735 mmHg 33%
    18:00 +35°C° 0 mm 6 mps 735 mmHg 34%
    19:00 +35°C° 0 mm 6 mps 735 mmHg 35%
    20:00 +34°C° 0 mm 5 mps 735 mmHg 37%
    21:00 +33°C° 0 mm 4 mps 736 mmHg 38%
    22:00 +33°C° 0 mm 4 mps 736 mmHg 39%
    23:00 +31°C° 0 mm 3 mps 735 mmHg 40%

    28 July, Friday

    Time Temperature Precipitation Wind Pressure Humidity
    00:00 +31°C° 0 mm 3 mps 735 mmHg 42%
    01:00 +31°C° 0 mm 2 mps 735 mmHg 42%
    02:00 +30°C° 0 mm 2 mps 735 mmHg 42%
    03:00 +30°C° 0 mm 2 mps 735 mmHg 42%
    04:00 +30°C° 0 mm 2 mps 735 mmHg 41%
    05:00 +31°C° 0 mm 2 mps 735 mmHg 41%
    06:00 +31°C° 0 mm 2 mps 736 mmHg 40%
    07:00 +32°C° 0 mm 2 mps 736 mmHg 37%
    08:00 +35°C° 0 mm 2 mps 736 mmHg 34%
    09:00 +36°C° 0 mm 2 mps 736 mmHg 31%
    10:00 +37°C° 0 mm 2 mps 736 mmHg 29%
    11:00 +38°C° 0 mm 2 mps 736 mmHg 27%
    12:00 +39°C° 0 mm 3 mps 735 mmHg 25%
    13:00 +39°C° 0 mm 3 mps 735 mmHg 25%
    14:00 +40°C° 0 mm 4 mps 735 mmHg 25%
    15:00 +41°C° 0 mm 4 mps 735 mmHg 25%
    16:00 +40°C° 0 mm 4 mps 735 mmHg 27%
    17:00 +38°C° 0 mm 4 mps 735 mmHg 29%
    18:00 +37°C° 0 mm 4 mps 735 mmHg 31%
    19:00 +36°C° 0 mm 3 mps 735 mmHg 34%
    20:00 +35°C° 0 mm 2 mps 735 mmHg 36%
    21:00 +33°C° 0 mm 1 mps 736 mmHg 39%
    22:00 +32°C° 0 mm 1 mps 736 mmHg 41%
    23:00 +32°C° 0 mm 1 mps 735 mmHg 42%
    Show more